#timestamp,LO_Frequency,Hit,StdDev 
1677992415.4,286046998.5,N
1677992435.2,286046999.4,N
1677992455.0,286047001.2,N
1677992455.9,286047001.2,N
1677992475.8,286046999.3,N
1677992495.6,286046997.4,N
1677992515.4,286046995.2,N
1677992535.3,286046995.8,N
1677992555.1,286046996.2,N
1677992575.9,286046997.4,N
1677992595.7,286046994.9,N
1677992615.5,286046997.7,N
1677992635.4,286047000.2,N
1677992655.2,286047002.2,N
1677992675.0,286046999.7,N
1677992675.9,286046999.7,N
1677992695.8,286047004.2,N
1677992715.6,286047002.9,N
1677992735.5,286047004.8,N
1677992755.3,286047005.6,N
1677992775.1,286047004.6,N
1677992795.9,286047003.0,N
1677992815.7,286047002.0,N
1677992835.5,286047000.3,N
1677992855.4,286047000.1,N
1677992875.2,286047001.6,N
1677992895.0,286047002.6,N
1677992896.0,286047002.6,N
1677992915.8,286047005.2,N
1677992935.6,286047003.1,N
1677992955.5,286047004.0,N
1677992975.3,286047004.0,N
1677992995.1,286046999.8,N
1677993015.9,286046998.7,N
1677993035.7,286047000.0,N
1677993055.5,286047002.7,N
1677993075.4,286046999.7,N
1677993095.2,286047000.5,N
1677993115.1,286047000.4,N
1677993116.0,286047000.4,N
1677993135.8,286046999.8,N
1677993155.6,286046998.7,N
1677993175.5,286046999.1,N
1677993195.3,286046997.9,N
1677993215.1,286046997.7,N
1677993235.9,286046995.7,N
1677993255.7,286046996.1,N
1677993275.6,286046993.4,N
1677993295.4,286046997.6,N
1677993315.2,286046997.0,N
1677993335.1,286046997.4,N
1677993336.0,286046997.4,N
1677993355.8,286046998.0,N
1677993375.6,286046997.2,N
1677993395.5,286046996.7,N
1677993415.3,286046998.0,N
1677993435.2,286046997.4,N
1677993455.9,286046997.5,N
1677993475.7,286046995.4,N
1677993495.6,286046995.0,N
1677993515.4,286046995.1,N
1677993535.2,286046994.1,N
1677993555.1,286046996.0,N
1677993556.0,286046996.0,N
1677993575.8,286046993.8,Y
1677993595.7,286046996.8,P
1677993615.5,286046999.1,N
1677993635.3,286046997.0,P
1677993655.2,286046998.0,N
1677993675.9,286046993.3,Y
1677993695.7,286046995.3,P
1677993715.6,286046998.0,N
1677993735.4,286046997.2,N
1677993755.3,286046998.9,N
1677993775.1,286046998.3,N
1677993776.0,286046998.3,N
1677993795.8,286047000.2,N
1677993815.7,286047000.0,N
1677993835.5,286047003.8,N
1677993855.3,286047008.1,Y
1677993875.2,286047010.2,P
1677993895.0,286047010.7,N
1677993895.9,286047010.7,N
1677993915.8,286047009.9,N
1677993935.6,286047008.1,N
1677993955.4,286047010.8,N
1677993975.3,286047008.7,N
1677993995.1,286047012.3,Y
1677994015.8,286047007.6,P
1677994035.7,286047006.3,P
1677994055.5,286047006.0,P
1677994075.4,286047006.0,Y
1677994095.2,286046996.5,P
1677994115.0,286046998.9,N
1677994115.9,286046998.9,N
1677994135.8,286046998.4,N
1677994155.6,286047002.6,N
1677994175.4,286047007.2,N
1677994195.3,286047004.7,N
1677994215.1,286047004.0,N
1677994235.9,286047000.1,N
1677994255.7,286047000.6,N
1677994275.5,286047000.3,N
1677994295.4,286047000.0,N
1677994315.2,286046996.5,N
1677994335.0,286046997.6,N
1677994335.9,286046997.6,N
1677994355.8,286046996.8,N
1677994375.6,286046997.8,N
1677994395.5,286046998.3,N
1677994415.3,286046999.9,N
1677994435.1,286047000.3,N
1677994455.9,286046999.4,N
1677994475.7,286046999.3,N
1677994495.5,286046996.9,N
1677994515.4,286046999.5,N
1677994535.2,286046999.3,N
1677994555.1,286046999.3,N
1677994556.0,286046999.3,N
1677994575.8,286046997.2,N
1677994595.6,286046995.3,N
1677994615.5,286046995.2,N
1677994635.3,286046994.1,N
1677994655.1,286046992.7,N
1677994675.9,286046992.6,N
1677994695.7,286046992.2,N
1677994715.6,286046990.3,N
1677994735.4,286046988.6,Y
1677994755.2,286046991.5,P
1677994775.1,286046992.8,N
1677994776.0,286046992.8,N
1677994795.8,286046991.8,Y
1677994815.6,286047000.6,P
1677994835.5,286046997.9,N
1677994855.3,286046993.7,N
1677994875.2,286046993.1,N
1677994895.9,286046990.5,Y
1677994915.7,286046991.8,P
1677994935.6,286046992.5,P
1677994955.4,286046990.8,P
1677994975.3,286046989.4,Y
1677994995.1,286046991.7,P
1677994996.0,286046991.7,P
1677995015.8,286046993.2,P
1677995035.7,286046989.3,Y
1677995055.5,286046996.1,P
1677995075.3,286046995.6,N
1677995095.2,286046996.0,N
1677995115.0,286046995.7,N
1677995115.9,286046995.7,Y
1677995135.8,286046998.9,P
1677995155.6,286046999.3,N
1677995175.4,286046998.0,N
1677995195.3,286046998.8,N
1677995215.1,286046998.6,N
1677995235.9,286046998.6,N
1677995255.7,286046998.4,N
1677995275.5,286046999.3,N
1677995295.4,286046998.5,N
1677995315.2,286047000.5,N
1677995335.0,286046998.9,N
1677995335.9,286046998.9,N
1677995355.8,286046998.3,N
1677995375.6,286046997.7,N
1677995395.5,286046998.0,N
1677995415.3,286046996.5,Y
1677995435.1,286046998.2,P
1677995455.9,286046998.4,P
1677995475.7,286047001.1,P
1677995495.5,286046998.1,N
1677995515.4,286046998.6,N
1677995535.2,286046996.6,Y
1677995555.1,286047001.2,P
1677995556.0,286047001.2,N
1677995575.8,286046998.5,N
1677995595.6,286046998.5,N
1677995615.5,286046996.5,N
1677995635.3,286046998.3,N
1677995655.1,286046998.8,N
1677995675.9,286046999.2,N
1677995695.7,286046999.0,N
1677995715.6,286046997.2,N
1677995735.4,286046995.8,Y
1677995755.2,286046995.5,P
1677995775.1,286046994.3,P
1677995776.0,286046994.3,N
1677995795.8,286046992.6,Y
1677995815.7,286046993.3,P
1677995835.5,286046996.4,N
1677995855.3,286046993.7,P
1677995875.2,286046994.3,Y
1677995895.0,286046998.8,P
1677995895.9,286046998.8,N
1677995915.8,286046998.5,N
1677995935.6,286046998.5,N
1677995955.4,286046999.5,N
1677995975.3,286046999.1,N
1677995995.1,286046999.1,N
